Wind_Speed
42 40 38 39 40 40 43 46 43 43 48 53 52 51 51 53 56 56 48 45 44 38 29 26 29 30 30 31 34 36 37 38 38 37 35 33 33 32 32 31 30 30 29
42 44 46 43 44 44 44 44 41 40 43 47 48 48 50 53 57 60 61 56 48 45 35 30 30 31 32 32 35 38 39 39 40 39 37 33 32 32 33 33 32 33 33
38 43 42 48 44 38 38 38 40 42 42 41 41 41 43 46 50 53 51 47 48 49 38 33 32 31 31 31 34 37 39 37 37 38 38 34 30 32 31 33 33 35 36
37 42 44 44 46 42 38 39 44 45 48 46 39 40 37 44 44 50 53 53 46 38 32 32 31 31 32 32 33 34 35 35 35 36 37 37 33 32 31 33 35 35 37
44 45 46 47 49 49 50 51 53 50 48 51 45 41 42 46 44 46 39 36 26 20 21 27 29 31 31 31 33 35 36 36 35 35 36 36 34 33 33 32 34 36 38
51 50 48 49 51 54 57 60 61 55 49 55 50 46 41 45 38 30 22 19 19 21 24 28 30 30 31 33 35 36 37 36 34 33 34 34 33 32 32 31 35 37 38
50 51 53 54 55 59 62 62 60 55 51 48 49 48 46 41 33 26 21 19 21 26 28 30 31 32 32 34 35 36 34 32 31 32 32 32 30 29 32 33 35 36 39
46 49 53 56 59 60 60 60 56 52 48 41 44 38 33 39 35 26 21 22 23 26 29 32 33 34 34 35 33 30 29 29 30 29 29 27 28 29 32 36 38 41 42
41 45 49 53 56 57 56 55 54 51 48 40 41 40 32 25 26 23 22 25 25 27 30 31 33 35 35 32 28 26 27 27 26 24 25 26 26 29 31 35 38 38 41
40 43 49 54 57 55 53 54 53 47 42 40 45 46 33 26 21 19 23 26 28 32 36 35 32 30 28 26 25 23 23 23 22 23 26 27 27 26 25 31 32 33 35
38 43 46 49 53 49 40 36 36 39 39 33 39 40 34 28 22 21 25 30 32 32 30 30 28 26 25 26 25 24 23 22 22 23 24 25 25 26 24 23 28 34 35
40 43 42 41 38 32 27 25 24 27 29 30 30 33 30 29 25 26 30 32 28 24 25 27 28 27 27 27 27 26 24 24 23 23 24 24 25 27 28 23 21 25 29
38 43 40 32 21 20 23 23 26 26 27 28 27 27 31 29 26 29 30 31 29 26 27 28 27 27 27 28 28 29 27 26 25 25 28 29 30 30 29 26 22 22 22
34 39 36 27 22 20 21 17 22 23 22 24 28 28 27 25 25 28 29 26 25 26 27 28 28 29 28 29 29 29 27 26 26 26 28 30 32 33 32 30 28 26 25
33 36 32 28 28 23 18 16 19 18 18 21 23 23 20 19 21 24 26 25 25 26 27 28 29 29 28 27 27 27 26 25 26 26 28 30 31 31 33 33 32 30 29
30 30 28 25 27 33 31 21 22 21 22 25 24 25 27 27 25 24 26 25 25 26 27 26 25 26 25 26 24 24 23 25 27 27 28 29 30 32 33 34 34 33 32
24 25 22 22 24 23 27 26 35 38 28 25 26 26 26 25 24 25 26 26 26 27 26 23 22 23 24 24 24 24 24 26 27 26 26 26 27 29 30 32 33 34 33
20 21 20 19 18 15 15 18 22 25 23 23 24 23 23 22 24 26 27 26 24 22 21 21 21 20 20 19 20 22 24 25 26 25 25 25 26 27 28 30 32 33 34
19 17 17 16 14 12 11 8 8 10 14 16 18 21 23 25 25 27 29 27 23 22 24 23 22 19 18 19 20 20 22 22 23 24 24 25 26 27 28 29 31 33 34
19 17 16 14 13 12 13 11 10 11 13 17 21 24 24 24 22 20 22 20 19 19 18 18 17 18 18 18 18 18 18 19 20 20 20 22 24 24 25 25 27 29 32
18 15 13 13 12 12 11 9 7 7 9 11 15 17 17 17 16 16 16 16 15 15 15 15 15 14 14 15 16 16 16 16 17 17 20 22 23 24 25 26 27 28 29
15 13 10 10 8 7 8 9 9 8 6 5 5 4 4 6 9 13 15 15 14 13 13 13 12 13 14 14 13 13 14 16 18 19 21 24 25 27 28 29 31 32 32
16 15 13 12 10 9 9 10 9 8 8 7 7 4 4 3 5 7 8 8 8 10 11 13 16 16 14 12 13 14 16 17 20 23 27 31 32 32 33 33 33 34 34
18 17 17 16 14 13 13 12 11 9 9 9 8 6 2 4 4 5 7 8 9 11 13 15 13 12 13 14 15 16 18 20 24 28 31 32 32 32 32 32 33 33 32
21 20 20 19 18 16 14 14 13 11 10 9 8 7 4 3 4 6 8 10 10 11 11 12 13 14 15 15 16 16 18 23 27 29 29 28 28 28 29 29 29 30 30
24 24 23 22 20 17 15 14 12 12 12 12 11 11 10 9 10 11 12 12 12 13 15 15 15 15 16 17 16 16 20 24 26 27 28 27 26 27 27 25 24 24 26
Wind_Direction
264 265 262 257 255 251 250 254 256 254 257 262 265 268 264 260 260 261 262 263 262 263 260 263 272 281 286 289 293 295 297 300 300 300 300 299 297 292 286 281 276 271 268
267 264 260 255 254 249 247 250 253 252 257 261 263 263 261 256 257 257 251 249 253 255 258 266 278 283 285 288 291 293 295 297 298 297 295 294 294 289 282 278 276 273 272
274 275 272 255 255 242 240 245 254 258 261 257 259 265 266 262 265 267 254 242 241 242 248 264 276 281 281 285 288 291 292 294 296 297 298 297 293 286 284 279 274 271 272
272 275 280 279 284 286 279 274 273 273 275 265 256 260 271 274 269 264 258 258 245 240 245 257 266 272 277 282 286 287 289 292 294 296 297 297 295 286 283 278 274 271 270
278 277 277 277 279 280 279 279 281 286 284 275 256 254 268 278 275 263 253 240 245 257 255 257 264 271 278 284 288 290 291 292 293 294 294 294 292 286 282 275 270 269 272
281 281 280 280 281 281 281 282 283 287 285 280 271 270 270 267 263 257 252 260 263 262 261 261 266 272 279 284 287 289 289 291 293 294 294 294 291 285 280 273 268 268 272
281 283 283 283 283 283 284 285 287 284 276 268 269 280 270 267 266 260 257 258 260 264 264 265 267 271 279 286 289 289 287 288 290 292 295 294 290 282 275 269 265 264 265
286 284 282 281 280 281 281 281 281 279 276 268 267 274 259 250 256 259 259 260 262 265 266 267 269 274 280 284 285 286 286 286 286 288 291 291 290 283 275 273 267 262 261
297 293 287 284 282 281 281 279 276 272 270 264 253 258 251 242 247 250 252 256 259 263 267 271 271 273 279 282 281 281 282 282 279 281 284 279 282 280 282 285 281 272 264
311 308 301 295 291 288 284 281 277 268 269 266 255 260 265 254 245 242 248 257 264 269 272 274 278 276 276 279 279 278 278 275 270 273 279 280 281 281 288 286 278 275 272
315 317 315 303 292 286 283 285 280 266 261 263 257 254 256 248 249 254 261 265 271 271 268 271 272 273 279 280 278 278 276 271 265 266 275 282 285 289 296 294 272 266 266
322 322 320 316 299 274 260 265 253 244 241 251 249 251 253 244 249 260 264 265 265 265 266 268 270 273 273 274 275 275 276 274 270 267 269 275 282 291 293 296 286 271 264
325 325 321 316 298 246 232 242 238 236 227 231 234 243 244 240 252 262 263 263 266 268 269 269 268 268 270 272 273 273 274 275 273 267 263 266 274 283 289 291 290 291 287
321 325 323 307 300 262 240 264 255 241 230 224 227 230 234 234 247 264 266 265 267 268 266 265 265 266 268 270 270 270 272 273 271 266 264 266 271 275 277 279 280 281 282
316 318 317 299 293 279 290 296 273 259 241 240 242 244 243 248 251 259 264 263 261 259 259 260 264 268 270 270 270 269 269 271 273 271 268 269 270 270 271 272 272 272 273
317 315 312 309 302 295 295 279 250 255 258 262 256 248 242 238 241 249 258 263 264 265 265 265 266 269 272 273 271 268 269 272 273 271 269 270 271 270 269 269 268 268 268
315 320 318 310 319 305 286 278 266 265 274 273 268 259 255 249 245 252 261 263 267 268 267 266 268 272 272 270 271 274 274 273 272 272 273 273 272 271 271 270 269 269 266
316 324 334 323 320 324 297 272 262 266 269 256 250 256 261 259 257 262 268 267 268 269 268 267 270 274 279 278 275 275 275 275 275 274 271 271 271 270 270 271 270 269 267
313 317 332 338 337 331 333 308 268 254 255 254 253 257 260 260 261 256 251 258 263 265 268 270 270 270 271 275 277 276 277 278 277 276 273 271 269 267 265 265 266 267 266
311 308 313 324 331 332 329 325 309 287 272 267 266 265 263 259 256 250 245 245 251 261 260 263 267 274 278 281 287 291 286 280 277 276 275 274 273 271 269 265 261 261 261
308 311 308 311 322 333 340 346 337 309 293 286 277 269 263 257 251 242 232 228 234 242 249 264 279 285 292 301 300 293 285 284 284 284 286 286 283 281 278 275 270 265 261
292 302 307 308 321 338 356 8 10 3 352 343 335 310 258 230 223 226 230 232 237 249 263 271 275 287 299 302 302 299 295 297 299 301 302 300 296 291 286 282 279 274 269
270 279 286 288 295 304 315 322 324 332 343 355 3 23 80 145 194 211 222 226 242 263 270 279 290 294 295 295 296 293 295 302 306 306 303 301 299 296 293 290 286 282 280
263 263 266 271 279 288 296 297 298 306 320 333 345 0 76 144 189 225 247 261 270 275 280 287 293 299 305 302 296 294 299 307 308 305 303 302 303 304 303 299 293 288 283
257 261 262 266 271 275 279 279 282 291 303 312 321 326 327 302 275 272 273 274 276 277 280 285 291 297 300 297 293 297 308 311 308 309 312 315 315 315 313 308 298 288 280
257 259 262 264 265 268 272 280 286 288 287 287 288 288 287 284 283 285 285 288 293 296 296 297 301 303 304 304 303 309 317 318 319 325 329 329 327 325 323 319 311 300 290
Height
5862 5861 5861 5858 5858 5857 5857 5857 5858 5858 5857 5855 5854 5851 5850 5851 5851 5852 5854 5855 5855 5856 5858 5858 5857 5857 5856 5854 5853 5853 5853 5852 5850 5850 5850 5849 5847 5846 5844 5842 5841 5842 5843
5854 5850 5848 5844 5843 5844 5846 5847 5848 5848 5848 5846 5842 5839 5837 5837 5836 5836 5837 5840 5841 5843 5846 5849 5848 5848 5847 5846 5845 5844 5845 5845 5842 5840 5840 5841 5841 5837 5836 5835 5834 5833 5834
5845 5840 5839 5836 5832 5834 5836 5837 5839 5842 5842 5839 5834 5829 5828 5829 5825 5824 5827 5826 5825 5829 5833 5837 5837 5837 5838 5837 5836 5836 5837 5836 5833 5830 5829 5829 5832 5829 5828 5827 5826 5825 5825
5837 5831 5827 5826 5823 5823 5826 5827 5828 5830 5831 5826 5827 5827 5821 5816 5811 5812 5815 5817 5817 5819 5822 5825 5828 5830 5830 5829 5829 5828 5827 5826 5825 5822 5820 5818 5820 5819 5819 5817 5816 5816 5815
5828 5826 5823 5820 5817 5816 5817 5818 5818 5822 5821 5817 5813 5814 5806 5803 5801 5802 5805 5808 5809 5811 5815 5818 5820 5821 5821 5821 5820 5820 5818 5816 5815 5813 5811 5809 5808 5809 5809 5808 5807 5807 5807
5817 5816 5816 5814 5811 5808 5807 5807 5805 5808 5808 5808 5804 5800 5799 5792 5792 5792 5797 5799 5800 5803 5807 5809 5810 5811 5812 5812 5812 5810 5808 5806 5805 5803 5802 5802 5800 5799 5799 5799 5798 5799 5800
5807 5805 5804 5803 5801 5798 5795 5793 5793 5795 5795 5795 5794 5790 5788 5782 5783 5784 5787 5789 5791 5795 5798 5799 5800 5802 5803 5803 5802 5800 5799 5798 5796 5796 5794 5793 5792 5790 5790 5790 5790 5790 5791
5798 5795 5792 5789 5787 5785 5782 5779 5778 5779 5778 5779 5780 5779 5775 5775 5775 5775 5777 5780 5783 5785 5788 5791 5792 5794 5794 5794 5793 5790 5790 5790 5789 5789 5787 5785 5783 5782 5781 5780 5780 5780 5780
5787 5782 5778 5773 5770 5768 5765 5764 5764 5765 5765 5767 5768 5768 5769 5766 5766 5768 5772 5774 5776 5778 5781 5783 5785 5785 5785 5784 5783 5782 5782 5782 5782 5782 5780 5778 5776 5774 5772 5772 5771 5769 5768
5776 5771 5765 5758 5753 5752 5750 5748 5747 5749 5751 5754 5754 5757 5759 5761 5762 5763 5766 5769 5769 5770 5774 5775 5775 5776 5776 5775 5775 5775 5775 5775 5775 5773 5772 5770 5768 5765 5764 5762 5760 5759 5759
5767 5760 5752 5744 5738 5737 5739 5738 5736 5737 5740 5743 5743 5747 5752 5754 5756 5757 5759 5761 5761 5762 5765 5767 5768 5769 5768 5768 5767 5767 5767 5767 5767 5766 5765 5763 5762 5761 5756 5753 5752 5752 5752
5757 5749 5741 5733 5726 5727 5732 5733 5731 5730 5733 5733 5736 5737 5742 5746 5748 5750 5751 5753 5754 5755 5757 5758 5760 5761 5761 5761 5761 5760 5760 5760 5759 5758 5758 5757 5757 5756 5753 5748 5746 5744 5744
5749 5741 5732 5725 5720 5720 5724 5724 5720 5721 5723 5725 5729 5730 5734 5739 5741 5742 5744 5745 5746 5747 5748 5749 5750 5753 5754 5754 5754 5754 5753 5751 5751 5750 5750 5749 5749 5749 5747 5744 5741 5739 5738
5742 5735 5727 5720 5717 5717 5718 5715 5712 5715 5716 5719 5722 5724 5728 5731 5733 5735 5736 5737 5739 5740 5741 5743 5744 5745 5745 5746 5746 5745 5744 5743 5742 5741 5740 5740 5739 5739 5739 5738 5737 5735 5733
5734 5729 5723 5717 5715 5714 5712 5704 5707 5709 5709 5712 5716 5717 5721 5724 5725 5729 5731 5731 5732 5734 5734 5734 5735 5736 5736 5736 5738 5738 5737 5735 5733 5733 5732 5731 5730 5729 5729 5729 5729 5729 5728
5728 5724 5718 5713 5709 5705 5704 5705 5706 5706 5707 5708 5708 5711 5713 5717 5719 5721 5723 5726 5727 5726 5725 5725 5726 5726 5727 5729 5728 5728 5727 5727 5727 5725 5724 5723 5722 5721 5720 5720 5720 5720 5721
5725 5720 5714 5709 5704 5699 5696 5696 5698 5700 5701 5701 5701 5704 5708 5710 5712 5714 5716 5718 5718 5717 5716 5717 5718 5718 5719 5719 5720 5720 5720 5720 5719 5718 5717 5715 5714 5713 5712 5711 5710 5710 5711
5721 5716 5711 5707 5702 5697 5694 5693 5693 5693 5695 5697 5698 5700 5703 5705 5706 5707 5707 5708 5709 5709 5709 5711 5712 5712 5713 5714 5714 5713 5713 5712 5711 5709 5707 5706 5705 5704 5703 5702 5702 5701 5702
5716 5712 5709 5706 5702 5698 5696 5694 5693 5692 5694 5694 5695 5695 5696 5698 5699 5700 5701 5701 5702 5703 5705 5706 5706 5706 5707 5707 5706 5706 5705 5704 5703 5701 5700 5698 5697 5696 5695 5693 5693 5692 5692
5713 5708 5706 5704 5701 5699 5696 5693 5691 5691 5692 5692 5691 5689 5690 5691 5691 5692 5694 5695 5696 5697 5699 5700 5700 5700 5700 5700 5699 5699 5699 5698 5697 5695 5694 5692 5690 5688 5687 5685 5684 5683 5682
5710 5705 5702 5701 5699 5696 5694 5692 5690 5689 5688 5687 5686 5685 5684 5684 5685 5687 5688 5690 5692 5693 5694 5695 5695 5694 5694 5692 5692 5692 5692 5691 5690 5689 5687 5685 5683 5681 5679 5677 5676 5674 5674
5706 5703 5700 5699 5697 5695 5693 5691 5689 5688 5687 5686 5684 5681 5680 5681 5683 5684 5686 5688 5689 5689 5690 5690 5690 5690 5689 5688 5688 5687 5687 5685 5684 5682 5680 5678 5676 5674 5672 5669 5667 5666 5665
5700 5699 5697 5696 5694 5692 5691 5690 5689 5688 5686 5684 5682 5680 5678 5679 5681 5682 5683 5684 5684 5684 5685 5686 5686 5686 5686 5685 5685 5684 5682 5681 5680 5677 5673 5669 5666 5663 5661 5659 5658 5656 5655
5694 5693 5693 5693 5691 5689 5688 5688 5687 5687 5685 5683 5681 5679 5678 5678 5679 5680 5680 5681 5682 5682 5683 5683 5682 5682 5682 5682 5681 5680 5678 5676 5674 5670 5665 5661 5657 5654 5651 5648 5646 5644 5643
5686 5686 5687 5687 5686 5685 5685 5685 5684 5683 5682 5681 5679 5679 5678 5678 5678 5678 5678 5679 5679 5679 5680 5679 5679 5679 5678 5677 5675 5674 5673 5670 5666 5661 5656 5652 5648 5645 5642 5639 5636 5634 5632
5679 5679 5679 5679 5679 5679 5679 5679 5678 5678 5677 5677 5677 5676 5676 5676 5676 5677 5677 5676 5676 5676 5676 5675 5675 5674 5673 5671 5670 5668 5667 5663 5658 5653 5649 5645 5641 5638 5634 5631 5628 5626 5623